#timestamp,LO_Frequency,Hit 
1504148415.5,286047000.5,N
1504148435.4,286047002.4,N
1504148455.2,286046998.7,N
1504148475.0,286046998.7,N
1504148475.9,286046998.7,N
1504148495.8,286047002.1,N
1504148515.6,286047005.8,N
1504148535.4,286047004.6,N
1504148555.3,286047006.1,N
1504148575.1,286047003.1,N
1504148576.0,286047003.1,N
1504148595.8,286047006.3,N
1504148615.7,286047010.0,P
1504148635.5,286047013.0,P
1504148655.3,286047016.6,P
1504148675.2,286047015.8,P
1504148695.9,286047005.1,N
1504148715.7,286047002.5,N
1504148735.6,286047000.6,N
1504148755.4,286046996.7,N
1504148775.2,286046997.3,N
1504148795.1,286046993.3,N
1504148796.0,286046993.3,N
1504148815.8,286046993.6,N
1504148835.6,286046992.6,N
1504148855.5,286046993.4,N
1504148875.3,286046992.1,N
1504148895.1,286046992.3,N
1504148915.9,286046992.9,N
1504148935.7,286046994.1,N
1504148955.5,286046993.6,N
1504148975.4,286046990.3,N
1504148995.2,286046988.5,N
1504149015.0,286046990.2,N
1504149015.9,286046990.2,N
1504149035.8,286046992.5,N
1504149055.6,286046993.2,N
1504149075.4,286046990.4,N
1504149095.2,286046991.0,N
1504149115.1,286046989.2,N
1504149116.0,286046989.2,N
1504149135.8,286046989.2,N
1504149155.6,286046990.9,N
1504149175.5,286046992.4,N
1504149195.3,286046990.5,N
1504149215.1,286046992.7,N
1504149235.9,286046993.6,N
1504149255.7,286046990.3,P
1504149275.6,286046997.0,N
1504149295.4,286046998.4,N
1504149315.2,286046998.4,N
1504149335.1,286046997.4,N
1504149336.0,286046997.4,N
1504149355.8,286046997.0,N
1504149375.6,286046997.3,N
1504149395.4,286046999.2,N
1504149415.3,286046999.5,N
1504149435.1,286046996.9,N
1504149455.8,286046995.1,N
1504149475.7,286046995.0,N
1504149495.5,286046993.7,N
1504149515.3,286046996.1,N
1504149535.2,286046999.0,N
1504149555.9,286046996.5,N
1504149575.7,286046995.4,N
1504149595.6,286046995.5,N
1504149615.4,286046993.6,N
1504149635.2,286046995.3,N
1504149655.1,286046994.9,N
1504149656.0,286046994.9,N
1504149675.8,286046993.7,N
1504149695.6,286046998.0,N
1504149715.5,286046995.3,N
1504149735.3,286046993.4,P
1504149755.1,286046999.3,N
1504149775.9,286046999.6,N
1504149795.7,286046999.3,N
1504149815.5,286046998.5,N
1504149835.4,286046998.6,N
1504149855.2,286046999.4,N
1504149875.0,286046999.7,N
1504149875.9,286046999.7,N
1504149895.8,286046999.8,N
1504149915.6,286047000.1,N
1504149935.4,286047001.1,N
1504149955.3,286046996.5,N
1504149975.1,286046996.5,N
1504149976.0,286046996.5,N
1504149995.8,286046998.4,N
1504150015.6,286046998.6,N
1504150035.5,286046999.0,N
1504150055.3,286046998.7,N
1504150075.1,286047002.2,N
1504150095.9,286047005.7,P
1504150115.7,286047007.6,N
1504150135.6,286047004.2,N
1504150155.4,286047001.9,N
1504150175.2,286047005.4,N
1504150195.0,286047004.0,N
1504150196.0,286047004.0,N
1504150215.8,286047004.8,N
1504150235.6,286047002.9,N
1504150255.5,286047007.3,P
1504150275.3,286047003.0,N
1504150295.1,286047005.1,N
1504150315.9,286047007.2,P
1504150335.7,286046998.1,N
1504150355.5,286047002.1,N
1504150375.4,286047003.9,N
1504150395.2,286047003.9,N
1504150415.0,286047001.9,N
1504150415.9,286047001.9,N
1504150435.8,286047000.0,N
1504150455.6,286047000.1,N
1504150475.4,286047001.1,N
1504150495.3,286047000.8,N
1504150515.1,286046996.5,N
1504150516.0,286046996.5,N
1504150535.8,286046998.8,N
1504150555.7,286046999.5,N
1504150575.5,286046997.7,N
1504150595.3,286046995.3,N
1504150615.1,286046999.3,N
1504150635.9,286046997.6,N
1504150655.7,286046995.2,N
1504150675.5,286046997.4,N
1504150695.4,286046996.0,N
1504150715.2,286046996.1,N
1504150735.0,286046993.3,N
1504150735.9,286046993.3,N
1504150755.8,286046997.9,N
1504150775.6,286046995.6,N
1504150795.4,286046995.7,N
1504150815.3,286046993.7,N
1504150835.1,286046995.5,N
1504150836.0,286046995.5,N
1504150855.8,286046995.7,N
1504150875.7,286046993.3,N
1504150895.5,286046994.0,N
1504150915.3,286046993.4,N
1504150935.2,286046994.0,N
1504150955.9,286046997.6,N
1504150975.7,286046995.3,N
1504150995.6,286046994.9,N
1504151015.4,286046996.2,N
1504151035.2,286046994.3,N
1504151055.0,286046995.9,N
1504151056.0,286046995.9,N
1504151075.8,286046995.2,N
1504151095.6,286046995.5,N
1504151115.4,286046996.4,N
1504151135.3,286046995.5,P
1504151155.1,286047002.7,P
1504151175.9,286047004.9,N
1504151195.7,286047003.2,N
1504151215.5,286047002.9,N
1504151235.4,286047003.8,N
1504151255.2,286047005.7,N
1504151275.0,286047004.8,N
1504151275.9,286047004.8,N
1504151295.8,286047006.3,N
1504151315.6,286047008.8,N
1504151335.4,286047008.7,N
1504151355.3,286047010.8,N
1504151375.1,286047004.5,N
1504151376.0,286047004.5,N
1504151395.8,286047005.0,N
1504151415.6,286047005.6,N
1504151435.5,286047007.0,N
1504151455.3,286047005.9,N
1504151475.1,286047005.3,N
1504151495.9,286047004.0,N
1504151515.7,286047004.2,N
1504151535.5,286047003.1,N
1504151555.4,286047005.0,N
1504151575.2,286047007.0,N
1504151595.0,286047008.2,N
1504151595.9,286047008.2,N
1504151615.8,286047010.2,P
1504151635.6,286047004.2,N
1504151655.4,286047001.5,N
1504151675.3,286046998.4,N
1504151695.1,286046998.2,N
1504151715.8,286047000.1,N
1504151735.7,286047001.2,N
1504151755.5,286046998.4,N
1504151775.3,286046998.2,N
1504151795.2,286046998.7,N
1504151815.9,286046998.1,N
1504151835.7,286047001.9,N
1504151855.6,286047003.5,N
1504151875.4,286047005.9,N
1504151895.2,286047002.9,N
1504151915.1,286047005.1,N
1504151916.0,286047005.1,N
1504151935.8,286047007.3,N
1504151955.6,286047006.9,N
1504151975.5,286047006.7,N
1504151995.3,286047006.1,N
